"startDT [UTC]","vpos","CH4 [ppm]","stdev(CH4) [ppm]","CO2 [ppm]","stdev(CO2) [ppm]","H2O_reported [%]","stdev(H2O_reported)","CavityPressure [torr]","CavityTemp [C]","OutletValve","CH4_dry [ppm]","CO2_dry [ppm]","DasTemp [C]","EtalonTemp [C]","WarmBoxTemp [C]","MPVPosition","T_ECpre [C]","T_EC1 [C]","T_EC2 [C]","p_inlet [hPa]","p_in [hPa]","p_out [hPa]","T_inlet [C]","RH_inlet [%]","dwpt_inlet [C]","T_vent [C]","RH_vent [%]","dwpt_vent [C]","flow_vent [l min-1]","flow_inlet [l min-1]","dwpt_sample [C]","T_room [C]"
2015-07-03 00:00:00,0.0,1.88456,0.00032,390.515,0.060,0.9966,0.0030,139.998,45.000,32111.31243,1.90364,395.349,34.874,45.067,45.000,0.00,0.10,-272.72,-272.79,1,668,-8,25.6,23.5,3.2,25.3,23.3,2.8,5.73,1.71,2.3,29.2
2015-07-03 00:01:00,0.0,1.88452,0.00043,390.589,0.162,1.0000,0.0030,140.002,45.000,32112.78942,1.90367,395.428,34.874,45.067,45.000,0.00,0.10,-272.71,-272.80,-0,668,-8,25.6,23.6,3.3,25.3,23.3,2.8,5.73,1.81,2.3,29.2
2015-07-03 00:02:00,0.0,1.88520,0.00063,390.738,0.148,0.9989,0.0036,140.004,45.000,32112.52911,1.90430,395.587,34.873,45.067,45.000,0.00,0.10,-272.73,-272.79,-0,668,-8,25.6,23.4,3.2,25.3,23.3,2.8,5.73,1.80,2.3,29.2
2015-07-03 00:03:00,0.0,1.88590,0.00047,390.838,0.074,0.9906,0.0022,140.000,45.000,32110.87869,1.90484,395.645,34.859,45.067,45.000,0.00,0.10,-272.72,-272.78,1,668,-8,25.6,23.3,3.1,25.3,23.3,2.8,5.73,1.69,2.3,29.2
2015-07-03 00:04:00,0.0,1.88537,0.00035,391.035,0.105,0.9910,0.0022,139.997,45.000,32113.87873,1.90438,395.833,34.865,45.067,45.000,0.00,0.10,-272.72,-272.78,1,668,-8,25.6,23.3,3.1,25.3,23.3,2.8,5.73,1.64,2.3,29.2
2015-07-03 00:05:00,0.0,1.88551,0.00054,391.587,0.073,0.9873,0.0019,140.001,45.000,32115.98532,1.90443,396.381,34.856,45.067,45.000,0.00,0.10,-272.73,-272.78,-0,668,-8,25.6,23.1,3.0,25.3,23.3,2.9,5.73,1.73,2.3,29.2
2015-07-03 00:06:00,0.0,1.88606,0.00055,391.676,0.076,0.9880,0.0043,140.000,45.000,32115.47255,1.90491,396.476,34.836,45.067,45.000,0.00,0.10,-272.72,-272.80,-0,668,-8,25.6,23.4,3.1,25.3,23.4,2.9,5.73,1.82,2.3,29.3
2015-07-03 00:07:00,0.0,1.88565,0.00055,391.664,0.140,1.0027,0.0049,139.999,45.000,32115.82798,1.90492,396.539,34.834,45.068,45.000,0.00,0.10,-272.71,-272.79,1,668,-8,25.6,23.7,3.4,25.3,23.4,2.9,5.73,1.79,2.3,29.2
2015-07-03 00:08:00,0.0,1.88574,0.00043,391.637,0.164,1.0144,0.0023,140.007,45.000,32115.35731,1.90519,396.567,34.817,45.068,45.000,0.00,0.10,-272.73,-272.79,1,668,-8,25.6,23.9,3.4,25.3,23.5,2.9,5.73,1.67,2.3,29.2
2015-07-03 00:09:00,0.0,1.88551,0.00046,391.917,0.036,1.0172,0.0047,140.006,45.000,32118.92487,1.90503,396.870,34.814,45.068,45.000,0.00,0.10,-272.70,-272.79,-0,668,-8,25.6,24.0,3.5,25.3,23.5,2.9,5.73,1.64,2.3,29.2
2015-07-03 00:10:00,0.0,1.88520,0.00044,391.877,0.067,1.0181,0.0026,140.000,45.000,32117.54022,1.90471,396.840,34.821,45.068,45.000,0.00,0.10,-272.73,-272.78,0,668,-8,25.6,23.9,3.5,25.3,23.5,3.0,5.73,1.74,2.3,29.2
2015-07-03 00:11:00,0.0,1.88527,0.00050,391.765,0.066,1.0140,0.0023,140.000,45.000,32118.53449,1.90473,396.703,34.825,45.068,45.000,0.00,0.10,-272.72,-272.79,1,668,-8,25.6,23.9,3.5,25.3,23.6,3.0,5.73,1.83,2.3,29.3
2015-07-03 00:12:00,0.0,1.88527,0.00039,391.883,0.072,1.0181,0.0034,139.999,45.000,32119.04337,1.90478,396.835,34.864,45.068,45.000,0.00,0.10,-272.74,-272.80,0,668,-8,25.6,24.1,3.6,25.3,23.6,3.0,5.73,1.78,2.3,29.3
2015-07-03 00:13:00,0.0,1.88530,0.00040,391.971,0.045,1.0253,0.0018,140.001,45.000,32118.15875,1.90492,396.962,34.875,45.067,45.000,0.00,0.10,-272.74,-272.80,-0,668,-8,25.6,24.1,3.6,25.3,23.6,3.0,5.73,1.66,2.3,29.3
2015-07-03 00:14:00,0.0,1.88572,0.00064,392.005,0.101,1.0186,0.0035,140.003,45.000,32117.82870,1.90525,396.971,34.875,45.067,45.000,0.00,0.10,-272.71,-272.79,0,668,-8,25.6,23.9,3.5,25.3,23.7,3.1,5.73,1.65,2.3,29.2
2015-07-03 00:15:00,0.0,1.88600,0.00049,392.009,0.053,1.0129,0.0029,140.001,45.000,32115.17207,1.90536,396.942,34.875,45.067,45.000,0.00,0.10,-272.71,-272.79,1,668,-8,25.6,23.8,3.4,25.3,23.7,3.1,5.73,1.75,2.3,29.2
2015-07-03 00:16:00,0.0,1.88595,0.00061,392.091,0.042,1.0077,0.0019,140.006,45.000,32119.13338,1.90530,397.001,34.876,45.067,45.000,0.00,0.10,-272.73,-272.79,-0,668,-8,25.6,23.7,3.3,25.3,23.7,3.1,5.73,1.83,2.3,29.2
2015-07-03 00:17:00,0.0,1.88615,0.00039,392.046,0.048,1.0028,0.0033,140.002,45.000,32118.71373,1.90538,396.930,34.879,45.067,45.000,0.00,0.10,-272.72,-272.76,-0,668,-8,25.6,23.5,3.2,25.3,23.8,3.1,5.73,1.76,2.3,29.2
2015-07-03 00:18:00,0.0,1.88653,0.00045,392.096,0.050,0.9985,0.0021,140.002,45.000,32119.62547,1.90564,396.959,34.876,45.067,45.000,0.00,0.10,-272.74,-272.79,0,668,-8,25.6,23.5,3.2,25.3,23.8,3.2,5.73,1.65,2.3,29.2
2015-07-03 00:19:00,0.0,1.88624,0.00041,392.035,0.059,1.0005,0.0020,139.997,45.000,32117.92761,1.90547,396.908,34.875,45.067,45.000,0.00,0.10,-272.73,-272.78,1,668,-8,25.6,23.6,3.3,25.3,23.9,3.2,5.73,1.66,2.3,29.2
2015-07-03 00:20:00,0.0,1.88588,0.00037,391.943,0.046,1.0098,0.0028,139.999,45.000,32119.34364,1.90523,396.861,34.876,45.067,45.000,0.00,0.10,-272.70,-272.78,-0,668,-8,25.6,23.9,3.4,25.3,23.9,3.2,5.73,1.78,2.3,29.2
2015-07-03 00:21:00,0.0,1.88569,0.00061,391.680,0.140,1.0286,0.0046,140.005,45.000,32118.78598,1.90545,396.685,34.890,45.067,45.000,0.00,0.10,-272.73,-272.79,-0,668,-8,25.6,24.3,3.7,25.3,23.9,3.2,5.73,1.83,2.3,29.2
2015-07-03 00:22:00,0.0,1.88491,0.00049,391.795,0.079,1.0457,0.0090,140.001,45.000,32118.84629,1.90497,396.895,34.877,45.067,45.000,0.00,0.10,-272.73,-272.80,1,668,-8,25.6,24.8,4.0,25.3,24.0,3.2,5.73,1.74,2.3,29.3
2015-07-03 00:23:00,0.0,1.88513,0.00049,391.616,0.083,1.0524,0.0020,140.002,45.000,32120.00734,1.90531,396.749,34.896,45.067,45.000,0.00,0.10,-272.71,-272.79,1,668,-8,25.6,24.8,4.0,25.3,24.0,3.3,5.73,1.65,2.3,29.3
2015-07-03 00:24:00,0.0,1.88480,0.00035,391.497,0.076,1.0537,0.0044,140.002,45.000,32119.77625,1.90499,396.626,34.927,45.067,45.000,0.00,0.10,-272.72,-272.78,-0,668,-8,25.6,24.9,4.0,25.3,24.0,3.3,5.73,1.67,2.3,29.2
2015-07-03 00:25:00,0.0,1.88427,0.00048,391.460,0.102,1.0662,0.0054,139.999,45.000,32116.32319,1.90478,396.661,34.934,45.067,45.000,0.00,0.10,-272.72,-272.79,-0,668,-8,25.6,25.2,4.2,25.3,24.0,3.3,5.73,1.78,2.3,29.2
2015-07-03 00:26:00,0.0,1.88436,0.00051,391.573,0.150,1.0723,0.0026,140.001,45.000,32116.26805,1.90497,396.789,34.935,45.067,45.000,0.00,0.10,-272.73,-272.79,1,668,-8,25.6,25.3,4.3,25.3,24.1,3.3,5.73,1.82,2.3,29.3
2015-07-03 00:27:00,0.0,1.88395,0.00055,391.578,0.101,1.0649,0.0103,139.996,45.000,32118.26749,1.90436,396.779,34.938,45.067,45.000,0.00,0.10,-272.72,-272.79,0,668,-8,25.6,24.9,4.0,25.3,24.1,3.3,5.73,1.75,2.3,29.3
2015-07-03 00:28:00,0.0,1.88478,0.00048,391.308,0.108,1.0522,0.0024,140.001,45.000,32119.21491,1.90498,396.440,34.941,45.067,45.000,0.00,0.10,-272.73,-272.79,-0,668,-8,25.6,24.7,3.9,25.3,24.1,3.3,5.73,1.64,2.3,29.3
2015-07-03 00:29:00,0.0,1.88461,0.00042,391.372,0.123,1.0524,0.0019,140.000,45.000,32114.46834,1.90479,396.487,34.942,45.067,45.000,0.00,0.10,-272.73,-272.80,-0,668,-8,25.6,24.8,3.9,25.3,24.1,3.3,5.73,1.67,2.3,29.3
2015-07-03 00:30:00,0.0,1.88456,0.00032,391.593,0.080,1.0488,0.0067,140.002,45.000,32114.94202,1.90467,396.704,34.943,45.067,45.000,0.00,0.10,-272.72,-272.78,1,668,-8,25.6,24.4,3.8,25.3,24.2,3.4,5.73,1.77,2.3,29.3
2015-07-03 00:31:00,0.0,1.88504,0.00042,391.772,0.064,1.0124,0.0070,140.000,45.000,32117.46099,1.90448,396.698,34.970,45.067,45.000,0.00,0.10,-272.73,-272.79,0,668,-8,25.6,23.6,3.3,25.3,24.2,3.4,5.73,1.83,2.3,29.3
2015-07-03 00:32:00,0.0,1.88505,0.00038,391.885,0.061,1.0028,0.0021,140.001,45.000,32119.14943,1.90422,396.768,34.999,45.067,45.000,0.00,0.10,-272.73,-272.79,-1,668,-8,25.6,23.5,3.2,25.3,24.3,3.4,5.73,1.74,2.3,29.3
2015-07-03 00:33:00,0.0,1.88558,0.00041,391.896,0.070,0.9951,0.0046,139.999,45.000,32115.59235,1.90461,396.741,35.000,45.067,45.000,0.00,0.10,-272.72,-272.79,-0,668,-8,25.6,23.2,3.1,25.3,24.3,3.5,5.73,1.64,2.3,29.3
2015-07-03 00:34:00,0.0,1.88552,0.00036,391.941,0.188,0.9835,0.0072,140.005,45.000,32117.90561,1.90439,396.722,34.996,45.067,45.000,0.00,0.10,-272.72,-272.79,1,668,-8,25.6,23.1,3.0,25.3,24.4,3.5,5.73,1.66,2.3,29.3
2015-07-03 00:35:00,0.0,1.88568,0.00045,392.026,0.096,0.9849,0.0065,140.002,45.000,32117.27211,1.90451,396.818,34.997,45.067,45.000,0.00,0.10,-272.73,-272.79,0,668,-8,25.6,23.0,2.9,25.3,24.4,3.5,5.73,1.76,2.3,29.3
2015-07-03 00:36:00,0.0,1.88530,0.00040,392.187,0.077,0.9830,0.0040,139.999,45.000,32114.88896,1.90414,396.971,34.992,45.067,45.000,0.00,0.10,-272.73,-272.79,-1,668,-8,25.6,23.0,2.9,25.3,24.5,3.6,5.73,1.82,2.3,29.3
2015-07-03 00:37:00,0.0,1.88582,0.00036,392.348,0.068,0.9690,0.0026,140.002,45.000,32117.26448,1.90436,397.065,34.969,45.067,45.000,0.00,0.10,-272.72,-272.78,-0,668,-8,25.6,22.7,2.7,25.3,24.5,3.6,5.73,1.76,2.3,29.2
2015-07-03 00:38:00,0.0,1.88558,0.00035,392.212,0.022,0.9630,0.0017,139.999,45.000,32116.84058,1.90400,396.896,34.976,45.067,45.000,0.00,0.10,-272.73,-272.79,0,668,-8,25.6,22.5,2.6,25.3,24.5,3.6,5.73,1.67,2.3,29.3
2015-07-03 00:39:00,0.0,1.88577,0.00052,392.336,0.078,0.9539,0.0057,139.997,45.000,32114.73278,1.90406,396.976,34.983,45.067,45.000,0.00,0.10,-272.73,-272.79,-0,668,-8,25.6,22.2,2.4,25.3,24.6,3.6,5.73,1.65,2.3,29.2
2015-07-03 00:40:00,0.0,1.88565,0.00047,392.526,0.077,0.9414,0.0042,139.998,45.000,32116.69134,1.90362,397.105,34.990,45.067,45.000,0.00,0.10,-272.72,-272.79,-1,668,-8,25.6,22.0,2.3,25.3,24.6,3.6,5.73,1.74,2.3,29.3
2015-07-03 00:41:00,0.0,1.88618,0.00063,392.643,0.075,0.9371,0.0037,140.000,45.000,32114.89470,1.90404,397.199,34.962,45.067,45.000,0.00,0.10,-272.72,-272.79,-0,668,-8,25.6,22.0,2.3,25.3,24.5,3.6,5.73,1.82,2.3,29.3
2015-07-03 00:42:00,0.0,1.88613,0.00053,392.516,0.096,0.9512,0.0057,140.003,45.000,32115.95844,1.90436,397.148,34.967,45.067,45.000,0.00,0.10,-272.73,-272.79,1,668,-8,25.6,22.4,2.5,25.3,24.5,3.6,5.73,1.78,2.3,29.3
2015-07-03 00:43:00,0.0,1.88603,0.00033,392.460,0.110,0.9543,0.0021,140.002,45.000,32114.34337,1.90431,397.101,34.966,45.067,45.000,0.00,0.10,-272.73,-272.78,0,668,-8,25.6,22.3,2.5,25.3,24.5,3.6,5.73,1.68,2.3,29.3
2015-07-03 00:44:00,0.0,1.88576,0.00043,392.568,0.035,0.9484,0.0060,140.001,45.000,32118.36074,1.90395,397.188,34.967,45.068,45.001,0.00,0.10,-272.72,-272.78,-0,668,-8,25.6,22.1,2.4,25.3,24.4,3.5,5.73,1.64,2.3,29.2
2015-07-03 00:45:00,0.0,1.88591,0.00044,392.390,0.078,0.9557,0.0080,140.004,45.000,32121.30691,1.90418,397.040,34.977,45.068,45.000,0.00,0.10,-272.73,-272.79,-0,668,-8,25.6,22.6,2.7,25.3,24.4,3.5,5.73,1.71,2.3,29.2
2015-07-03 00:46:00,0.0,1.88525,0.00045,392.261,0.176,0.9819,0.0063,140.002,45.000,32119.32466,1.90402,397.045,34.985,45.067,45.000,0.00,0.10,-272.73,-272.79,1,668,-8,25.6,23.0,2.9,25.4,24.3,3.5,5.73,1.81,2.3,29.3
2015-07-03 00:47:00,0.0,1.88587,0.00033,392.322,0.109,0.9794,0.0094,140.000,45.000,32118.39223,1.90457,397.088,34.964,45.067,45.000,0.00,0.10,-272.72,-272.78,0,668,-8,25.6,23.1,3.0,25.4,24.2,3.5,5.73,1.80,2.3,29.3
2015-07-03 00:48:00,0.0,1.88541,0.00056,392.243,0.144,0.9911,0.0024,139.999,45.000,32117.40537,1.90445,397.060,34.998,45.067,45.000,0.00,0.10,-272.72,-272.79,-1,668,-8,25.7,23.3,3.1,25.3,24.2,3.4,5.73,1.70,2.3,29.3
2015-07-03 00:49:00,0.0,1.88504,0.00051,392.477,0.034,0.9803,0.0102,140.003,45.000,32119.73913,1.90380,397.257,34.999,45.067,45.000,0.00,0.10,-272.73,-272.79,-0,668,-8,25.7,22.8,2.8,25.4,24.1,3.4,5.73,1.65,2.3,29.3
2015-07-03 00:50:00,0.0,1.88536,0.00045,392.560,0.052,0.9654,0.0032,140.000,45.000,32120.03651,1.90388,397.261,34.997,45.067,45.000,0.00,0.10,-272.72,-272.79,1,668,-8,25.6,22.5,2.7,25.4,24.0,3.3,5.73,1.69,2.3,29.3
2015-07-03 00:51:00,0.0,1.88609,0.00069,392.387,0.104,0.9513,0.0066,140.001,45.000,32121.27613,1.90421,397.017,35.000,45.067,45.000,0.00,0.10,-272.72,-272.79,0,668,-8,25.7,22.3,2.5,25.4,24.0,3.3,5.73,1.79,2.4,29.3
2015-07-03 00:52:00,0.0,1.88591,0.00040,392.529,0.056,0.9674,0.0069,140.000,45.000,32121.63354,1.90444,397.235,34.999,45.067,45.000,0.00,0.10,-272.73,-272.79,-1,668,-8,25.7,22.7,2.8,25.4,23.9,3.3,5.73,1.81,2.3,29.3
2015-07-03 00:53:00,0.0,1.88612,0.00043,392.623,0.060,0.9570,0.0043,140.000,45.000,32122.05608,1.90444,397.284,35.001,45.067,45.000,0.00,0.10,-272.73,-272.79,-0,668,-8,25.7,22.3,2.6,25.4,23.9,3.2,5.73,1.73,2.3,29.3
2015-07-03 00:54:00,0.0,1.88606,0.00035,392.689,0.084,0.9526,0.0027,140.001,45.000,32121.64910,1.90429,397.329,35.000,45.067,45.000,0.00,0.10,-272.72,-272.78,1,668,-8,25.7,22.3,2.5,25.4,23.8,3.2,5.73,1.65,2.3,29.3
2015-07-03 00:55:00,0.0,1.88622,0.00030,392.701,0.144,0.9418,0.0074,140.001,45.000,32122.39508,1.90424,397.281,35.000,45.067,45.000,0.00,0.10,-272.72,-272.79,0,668,-8,25.7,21.9,2.3,25.4,23.8,3.2,5.73,1.67,2.3,29.4
2015-07-03 00:56:00,0.0,1.88654,0.00048,392.832,0.086,0.9348,0.0026,140.004,45.000,32123.43977,1.90437,397.390,35.000,45.067,45.000,0.00,0.10,-272.73,-272.79,-0,668,-8,25.7,21.8,2.2,25.4,23.8,3.2,5.73,1.78,2.4,29.4
2015-07-03 00:57:00,0.0,1.88623,0.00073,392.818,0.164,0.9379,0.0059,139.997,45.000,32121.48461,1.90423,397.373,35.000,45.067,45.000,0.00,0.10,-272.72,-272.78,0,668,-8,25.7,22.1,2.4,25.4,23.7,3.2,5.73,1.83,2.3,29.3
2015-07-03 00:58:00,0.0,1.88583,0.00035,392.821,0.085,0.9484,0.0064,139.998,45.000,32123.31758,1.90397,397.443,34.997,45.067,45.000,0.00,0.10,-272.72,-272.78,1,668,-8,25.7,22.1,2.4,25.4,23.7,3.2,5.73,1.76,2.3,29.3
2015-07-03 00:59:00,0.0,1.88627,0.00045,392.640,0.102,0.9517,0.0042,139.998,45.000,32122.44606,1.90446,397.275,34.996,45.067,45.000,0.00,0.10,-272.73,-272.79,0,668,-8,25.7,22.4,2.6,25.4,23.7,3.2,5.73,1.66,2.4,29.3
2015-07-03 01:00:00,0.0,1.88574,0.00051,392.480,0.072,0.9728,0.0064,140.004,45.000,32124.83222,1.90437,397.217,34.999,45.067,45.000,0.00,0.10,-272.72,-272.78,-0,668,-8,25.7,22.9,2.9,25.4,23.7,3.2,5.73,1.66,2.4,29.3
2015-07-03 01:01:00,0.0,1.88522,0.00036,392.430,0.101,0.9805,0.0031,139.997,45.000,32124.27066,1.90401,397.204,35.000,45.067,45.000,0.00,0.10,-272.71,-272.78,-0,668,-8,25.7,23.1,3.0,25.4,23.7,3.2,5.73,1.75,2.3,29.3
2015-07-03 01:02:00,0.0,1.88561,0.00044,392.607,0.063,0.9828,0.0059,139.999,45.000,32122.67193,1.90439,397.397,35.005,45.068,45.000,0.00,0.10,-272.73,-272.79,1,668,-8,25.7,22.8,2.9,25.4,23.6,3.1,5.73,1.82,2.4,29.4
2015-07-03 01:03:00,0.0,1.88568,0.00034,392.967,0.147,0.9517,0.0075,140.002,45.000,32123.84922,1.90393,397.599,35.003,45.067,45.000,0.00,0.10,-272.73,-272.79,0,668,-8,25.7,22.0,2.4,25.4,23.6,3.1,5.73,1.78,2.4,29.4
2015-07-03 01:04:00,0.0,1.88636,0.00029,393.032,0.065,0.9267,0.0043,140.001,45.000,32121.27054,1.90407,397.545,35.002,45.067,45.000,0.00,0.10,-272.72,-272.78,-1,668,-8,25.7,21.5,2.0,25.4,23.6,3.1,5.73,1.68,2.4,29.4
2015-07-03 01:05:00,0.0,1.88580,0.00025,393.182,0.043,0.9181,0.0024,140.000,45.000,32124.97414,1.90336,397.652,35.001,45.067,45.000,0.00,0.10,-272.72,-272.79,-0,668,-8,25.7,21.3,1.9,25.4,23.5,3.1,5.73,1.64,2.4,29.4
2015-07-03 01:06:00,0.0,1.88642,0.00036,393.089,0.064,0.9095,0.0024,139.998,45.000,32123.31947,1.90379,397.519,35.002,45.067,45.000,0.00,0.10,-272.73,-272.80,1,668,-8,25.7,21.2,1.8,25.4,23.5,3.1,5.73,1.71,2.4,29.4
2015-07-03 01:07:00,0.0,1.88639,0.00053,393.179,0.051,0.9094,0.0027,140.000,45.000,32121.32696,1.90374,397.604,35.021,45.067,45.000,0.00,0.10,-272.72,-272.78,0,668,-8,25.7,21.2,1.8,25.4,23.5,3.1,5.73,1.81,2.4,29.4
2015-07-03 01:08:00,0.0,1.88682,0.00063,393.105,0.050,0.9042,0.0025,140.002,45.000,32122.13529,1.90412,397.506,35.062,45.067,45.000,0.00,0.10,-272.72,-272.79,-1,668,-8,25.7,21.1,1.8,25.4,23.5,3.0,5.73,1.80,2.4,29.4
2015-07-03 01:09:00,0.0,1.88666,0.00036,393.080,0.064,0.9168,0.0045,140.001,45.000,32123.08617,1.90417,397.541,35.063,45.067,45.000,0.00,0.10,-272.73,-272.79,-0,668,-8,25.7,21.5,2.1,25.4,23.4,3.0,5.73,1.71,2.4,29.3
2015-07-03 01:10:00,0.0,1.88598,0.00038,392.988,0.116,0.9309,0.0031,139.997,45.000,32125.76778,1.90380,397.527,35.063,45.067,45.000,0.00,0.10,-272.73,-272.79,1,668,-8,25.7,21.8,2.3,25.4,23.4,3.0,5.73,1.64,2.4,29.4
2015-07-03 01:11:00,0.0,1.88576,0.00052,392.964,0.082,0.9398,0.0054,140.004,45.000,32127.86825,1.90375,397.534,35.063,45.067,45.000,0.00,0.10,-272.72,-272.78,0,668,-8,25.7,22.0,2.4,25.4,23.4,3.0,5.73,1.69,2.4,29.3
2015-07-03 01:12:00,0.0,1.88575,0.00046,393.050,0.069,0.9255,0.0120,139.999,45.000,32127.20445,1.90350,397.560,35.067,45.067,45.000,0.00,0.10,-272.73,-272.79,-1,668,-8,25.7,21.4,2.0,25.4,23.4,3.0,5.73,1.79,2.4,29.3
2015-07-03 01:13:00,0.0,1.88567,0.00055,393.003,0.083,0.9141,0.0037,139.997,45.000,32129.62556,1.90308,397.455,35.068,45.067,45.000,0.00,0.10,-272.73,-272.79,-0,668,-8,25.7,21.4,2.0,25.4,23.3,3.0,5.73,1.82,2.4,29.3
2015-07-03 01:14:00,0.0,1.88575,0.00053,392.809,0.043,0.9294,0.0032,139.996,45.000,32128.16415,1.90349,397.334,35.063,45.067,45.000,0.00,0.10,-272.72,-272.78,1,668,-8,25.7,21.6,2.1,25.4,23.3,2.9,5.73,1.73,2.4,29.3
2015-07-03 01:15:00,0.0,1.88664,0.00039,392.995,0.169,0.9037,0.0070,139.997,45.000,32126.57888,1.90391,397.388,35.063,45.067,45.000,0.00,0.10,-272.72,-272.79,0,668,-8,25.7,21.0,1.7,25.4,23.3,2.9,5.73,1.65,2.4,29.4
2015-07-03 01:16:00,0.0,1.88635,0.00032,393.113,0.060,0.9059,0.0028,139.998,45.000,32128.22206,1.90365,397.518,35.067,45.067,45.000,0.00,0.10,-272.73,-272.79,-1,668,-8,25.7,21.1,1.8,25.4,23.2,2.9,5.73,1.67,2.4,29.4
2015-07-03 01:17:00,0.0,1.88628,0.00030,393.169,0.046,0.8997,0.0050,140.002,45.000,32131.21132,1.90352,397.550,35.068,45.067,45.000,0.00,0.10,-272.72,-272.79,-0,668,-8,25.7,20.8,1.6,25.4,23.2,2.9,5.73,1.76,2.4,29.4
2015-07-03 01:18:00,0.0,1.88634,0.00050,392.935,0.085,0.9020,0.0056,139.998,45.000,32127.41272,1.90353,397.329,35.074,45.067,45.000,0.00,0.10,-272.72,-272.79,1,668,-8,25.7,21.2,1.9,25.4,23.1,2.8,5.73,1.82,2.4,29.4
2015-07-03 01:19:00,0.0,1.88606,0.00039,392.958,0.067,0.9180,0.0053,140.002,45.000,32128.00907,1.90364,397.418,35.071,45.067,45.000,0.00,0.10,-272.73,-272.79,0,668,-8,25.7,21.5,2.1,25.4,23.1,2.8,5.73,1.77,2.4,29.4
2015-07-03 01:20:00,0.0,1.88610,0.00054,392.988,0.060,0.9183,0.0024,140.004,45.000,32129.02391,1.90361,397.457,35.069,45.067,45.000,0.00,0.10,-272.72,-272.79,-1,668,-8,25.7,21.3,2.0,25.4,23.0,2.8,5.73,1.67,2.4,29.4
2015-07-03 01:21:00,0.0,1.88612,0.00044,392.997,0.057,0.9113,0.0022,140.001,45.000,32128.45779,1.90356,397.433,35.067,45.067,45.000,0.00,0.10,-272.72,-272.77,-0,668,-8,25.7,21.2,1.9,25.4,23.0,2.8,5.73,1.65,2.4,29.5
2015-07-03 01:22:00,0.0,1.88614,0.00039,393.084,0.065,0.8977,0.0045,140.001,45.000,32129.44209,1.90326,397.451,35.064,45.067,45.000,0.00,0.10,-272.73,-272.79,0,668,-8,25.7,20.8,1.6,25.4,23.0,2.7,5.73,1.73,2.4,29.4
2015-07-03 01:23:00,0.0,1.88682,0.00046,392.948,0.103,0.8936,0.0022,139.999,45.000,32127.77169,1.90386,397.301,35.063,45.067,45.000,0.00,0.10,-272.73,-272.79,0,668,-8,25.7,20.8,1.6,25.4,22.9,2.7,5.73,1.82,2.4,29.4
2015-07-03 01:24:00,0.0,1.88640,0.00059,392.882,0.076,0.9113,0.0083,140.002,45.000,32129.34520,1.90381,397.312,35.060,45.067,45.000,0.00,0.10,-272.73,-272.78,-0,668,-8,25.7,21.4,2.0,25.5,22.9,2.7,5.73,1.79,2.4,29.4
2015-07-03 01:25:00,0.0,1.88609,0.00056,392.790,0.111,0.9229,0.0037,139.999,45.000,32128.74025,1.90379,397.277,35.062,45.067,45.000,0.00,0.10,-272.72,-272.78,-0,668,-8,25.7,21.5,2.1,25.4,22.9,2.7,5.73,1.69,2.4,29.4
2015-07-03 01:26:00,0.0,1.88577,0.00041,392.979,0.069,0.9200,0.0037,139.996,45.000,32127.04146,1.90334,397.456,35.063,45.067,45.000,0.00,0.10,-272.73,-272.79,0,668,-8,25.7,21.3,2.0,25.5,22.8,2.7,5.73,1.64,2.4,29.4
2015-07-03 01:27:00,0.0,1.88589,0.00048,393.105,0.045,0.9023,0.0045,140.000,45.000,32128.03850,1.90314,397.496,35.064,45.067,45.000,0.00,0.10,-272.72,-272.79,0,668,-8,25.7,20.9,1.7,25.5,22.8,2.7,5.73,1.70,2.4,29.4
2015-07-03 01:28:00,0.0,1.88557,0.00024,392.993,0.082,0.9002,0.0032,140.001,45.000,32130.09072,1.90279,397.374,35.078,45.067,45.000,0.00,0.10,-272.72,-272.78,-1,668,-8,25.7,21.0,1.7,25.5,22.7,2.6,5.73,1.79,2.4,29.4
2015-07-03 01:29:00,0.0,1.88565,0.00039,393.005,0.055,0.9081,0.0035,140.000,45.000,32130.25277,1.90294,397.421,35.115,45.067,45.000,0.00,0.10,-272.73,-272.78,-0,668,-8,25.7,21.2,1.9,25.5,22.7,2.6,5.73,1.82,2.4,29.4
2015-07-03 01:30:00,0.0,1.88564,0.00043,392.925,0.116,0.9100,0.0048,140.001,45.000,32128.70484,1.90304,397.351,35.123,45.067,45.000,0.00,0.10,-272.73,-272.79,0,668,-8,25.8,21.3,2.0,25.5,22.7,2.6,5.73,1.74,2.4,29.4
2015-07-03 01:31:00,0.0,1.88504,0.00046,392.740,0.135,0.9342,0.0045,139.997,45.000,32127.13267,1.90290,397.289,35.125,45.067,45.000,0.00,0.10,-272.72,-272.79,0,668,-8,25.8,21.9,2.4,25.5,22.6,2.6,5.73,1.65,2.4,29.4
2015-07-03 01:32:00,0.0,1.88490,0.00039,392.711,0.134,0.9470,0.0072,139.999,45.000,32126.14109,1.90300,397.316,35.125,45.067,45.000,0.00,0.10,-272.72,-272.79,-1,667,-8,25.8,22.1,2.5,25.5,22.6,2.6,5.73,1.67,2.4,29.4
2015-07-03 01:33:00,0.0,1.88515,0.00056,393.108,0.104,0.9324,0.0167,139.998,45.000,32124.79504,1.90299,397.648,35.126,45.067,45.000,0.00,0.10,-272.72,-272.79,-1,667,-8,25.8,21.4,2.0,25.5,22.6,2.6,5.73,1.75,2.4,29.4
2015-07-03 01:34:00,0.0,1.88598,0.00045,393.286,0.094,0.8901,0.0108,140.005,45.000,32129.35498,1.90295,397.621,35.128,45.067,45.000,0.00,0.10,-272.72,-272.79,0,668,-8,25.8,20.4,1.4,25.5,22.6,2.5,5.73,1.82,2.4,29.4
2015-07-03 01:35:00,0.0,1.88649,0.00035,393.255,0.108,0.8735,0.0019,139.999,45.000,32127.24771,1.90313,397.508,35.159,45.067,45.000,0.00,0.10,-272.73,-272.78,0,668,-8,25.8,20.3,1.3,25.5,22.5,2.5,5.73,1.78,2.4,29.5
2015-07-03 01:36:00,0.0,1.88634,0.00051,393.201,0.124,0.8835,0.0040,139.997,45.000,32130.29516,1.90325,397.489,35.157,45.067,45.000,0.00,0.10,-272.73,-272.79,-0,668,-8,25.8,20.6,1.5,25.5,22.5,2.5,5.73,1.68,2.4,29.5
2015-07-03 01:37:00,0.0,1.88645,0.00053,393.311,0.051,0.8796,0.0074,139.998,45.000,32127.15808,1.90320,397.593,35.133,45.067,45.000,0.00,0.10,-272.73,-272.79,-1,668,-8,25.8,20.3,1.3,25.5,22.5,2.5,5.73,1.64,2.4,29.4
2015-07-03 01:38:00,0.0,1.88599,0.00067,393.270,0.103,0.8845,0.0060,139.999,45.000,32129.00693,1.90294,397.570,35.128,45.067,45.000,0.00,0.10,-272.72,-272.78,0,668,-8,25.8,20.7,1.6,25.5,22.5,2.5,5.73,1.71,2.4,29.5
2015-07-03 01:39:00,0.0,1.88623,0.00043,393.263,0.096,0.8914,0.0045,139.997,45.000,32129.56943,1.90323,397.602,35.125,45.067,45.000,0.00,0.10,-272.73,-272.79,0,668,-8,25.8,20.7,1.6,25.5,22.5,2.5,5.73,1.80,2.4,29.4
2015-07-03 01:40:00,0.0,1.88605,0.00045,393.310,0.081,0.8892,0.0031,140.003,45.000,32132.18604,1.90300,397.642,35.125,45.067,45.000,0.00,0.10,-272.73,-272.79,-0,668,-8,25.8,20.6,1.5,25.5,22.5,2.5,5.73,1.81,2.4,29.4
2015-07-03 01:41:00,0.0,1.88606,0.00044,393.136,0.101,0.8978,0.0113,140.000,45.000,32132.68497,1.90321,397.494,35.125,45.067,45.000,0.00,0.10,-272.72,-272.78,-1,668,-8,25.8,21.1,1.8,25.5,22.5,2.5,5.73,1.73,2.4,29.4
2015-07-03 01:42:00,0.0,1.88570,0.00038,393.281,0.069,0.9057,0.0089,139.997,45.000,32130.50771,1.90302,397.692,35.127,45.067,45.000,0.00,0.10,-272.72,-272.79,0,668,-8,25.8,20.9,1.7,25.5,22.5,2.5,5.73,1.65,2.4,29.4
2015-07-03 01:43:00,0.0,1.88610,0.00033,393.428,0.046,0.8897,0.0047,140.000,45.000,32130.13680,1.90311,397.759,35.127,45.067,45.000,0.00,0.10,-272.73,-272.79,0,668,-8,25.8,20.6,1.5,25.5,22.5,2.5,5.73,1.66,2.4,29.5
2015-07-03 01:44:00,0.0,1.88590,0.00036,393.501,0.094,0.8835,0.0051,140.000,45.000,32132.70898,1.90274,397.798,35.123,45.067,45.000,0.00,0.10,-272.72,-272.79,-0,668,-8,25.8,20.4,1.4,25.5,22.4,2.5,5.73,1.75,2.4,29.5
2015-07-03 01:45:00,0.0,1.88565,0.00053,393.701,0.111,0.8726,0.0080,140.001,45.000,32133.55238,1.90231,397.954,35.126,45.067,45.000,0.00,0.10,-272.72,-272.79,-1,668,-8,25.8,20.1,1.2,25.5,22.4,2.4,5.73,1.82,2.4,29.5
2015-07-03 01:46:00,0.0,1.88612,0.00035,393.625,0.050,0.8632,0.0040,140.004,45.000,32133.19260,1.90260,397.824,35.125,45.067,45.000,0.00,0.10,-272.73,-272.79,-0,668,-8,25.8,20.0,1.1,25.5,22.4,2.4,5.73,1.78,2.4,29.5
2015-07-03 01:47:00,0.0,1.88596,0.00042,393.644,0.098,0.8665,0.0044,139.999,45.000,32131.06221,1.90247,397.859,35.140,45.067,45.000,0.00,0.10,-272.73,-272.79,0,668,-8,25.8,20.0,1.1,25.5,22.3,2.4,5.73,1.69,2.4,29.5
2015-07-03 01:48:00,0.0,1.88629,0.00063,393.804,0.058,0.8545,0.0098,140.002,45.000,32131.86087,1.90256,397.965,35.175,45.067,45.000,0.00,0.10,-272.72,-272.78,-0,668,-8,25.8,19.6,0.8,25.5,22.3,2.4,5.73,1.65,2.4,29.4